Skip Page Navigation
NASA JPL Caltech
NASA Logo - Jet Propulsion Laboratory + View the NASA Portal
+ Center for Near-Earth Object Studies
JPL Home Earth Solar System Stars & Galaxies Technology
JPL Solar System Dynamics
BODIES ORBITS EPHEMERIDES TOOLS PHYSICAL DATA DISCOVERY FAQ SITE MAP
JPL Small-Body Database Browser
Search: [ help ]  
134295 (2006 DB41)
Classification: Main-belt Asteroid          SPK-ID: 2134295
Ephemeris | Orbit Diagram | Orbital Elements | Mission Design | Physical Parameters | Discovery Circumstances | Close-Approach Data ]

[ hide orbit diagram ]

For accurate long-term ephemerides, please instead use our Horizons system.This orbit viewer was implemented using two-body methods, and hence should not be used for determining accurate long-term trajectories (over several years or decades) or planetary encounter circumstances.


Orbital Elements at Epoch 2459396.5 (2021-Jul-01.0) TDB
Reference: JPL 27 (heliocentric ecliptic J2000)
 Element Value Uncertainty (1-sigma)   Units 
e .219225660375199 4.2987e-08  
a 2.759421663373735 1.6767e-08 au
q 2.154485626966998 1.1099e-07 au
i 10.23381922881911 3.8651e-06 deg
node 88.80839795648632 1.9626e-05 deg
peri 113.6607840639215 2.1754e-05 deg
M 113.8224824433061 7.8287e-06 deg
tp 2458867.140046396441
(2020-Jan-18.64004640)
3.5721e-05 TDB
period 1674.27013720424
4.58
1.526e-05
4.178e-08
d
yr
n .2150190653230797 1.9598e-09 deg/d
Q 3.364357699780472 2.0443e-08 au
  Orbit Determination Parameters
   # obs. used (total)      913  
   data-arc span      7177 days (19.65 yr)  
   first obs. used      2000-12-22  
   last obs. used      2020-08-16  
   planetary ephem.      DE441  
   SB-pert. ephem.      SB441-N16  
   condition code      0  
   norm. resid. RMS      .52722  
   source      ORB  
   producer      Otto Matic  
   solution date      2021-Jul-09 11:09:10  

Additional Information
 Earth MOID = 1.17498 au 
 Jupiter MOID = 1.69098 au 
 T_jup = 3.284 
[ hide covariance matrix ]
Orbital Elements at Epoch 2457660.5 (2016-Sep-29.0) TDB
Reference: JPL 27 (heliocentric ecliptic J2000)
 Element Value Uncertainty (1-sigma)   Units 
e .2180765468835044 4.2972e-08  
q 2.156432036556501 1.1062e-07 au
tp 2457192.095760496032
(2015-Jun-18.59576050)
3.7407e-05 TDB
node 88.90019856122908 1.9583e-05 deg
peri 113.2454448740196 2.1772e-05 deg
i 10.2455000768356 3.8697e-06 deg
  Orbit Determination Parameters
   # obs. used (total)      913  
   data-arc span      7177 days (19.65 yr)  
   first obs. used      2000-12-22  
   last obs. used      2020-08-16  
   planetary ephem.      DE441  
   SB-pert. ephem.      SB441-N16  
   condition code      0  
   norm. resid. RMS      .52722  
   source      ORB  
   producer      Otto Matic  
   solution date      2021-Jul-09 11:09:10  

Additional Information
 Jupiter MOID = 1.69098 au 
 T_jup = 3.284 
Orbit Covariance (6×6)
  e q tp node peri i
e 1.846579993081752E-15 -4.734240046063524E-15 -4.622933201425152E-14 -8.490318987583034E-15 3.665979216956531E-15 -5.216462986850998E-15
q -4.734240046063524E-15 1.223601206916675E-14 -8.213385576313563E-15 2.166472909448453E-14 -2.923721721999095E-14 1.329320621248961E-14
tp -4.622933201425152E-14 -8.213385576313563E-15 1.399299019237585E-9 -9.573219969101763E-12 3.64266604911866E-10 9.287120756883211E-13
node -8.490318987583034E-15 2.166472909448453E-14 -9.573219969101763E-12 3.834959479452844E-10 -3.797239129094756E-10 -2.296065094277492E-11
peri 3.665979216956531E-15 -2.923721721999095E-14 3.64266604911866E-10 -3.797239129094756E-10 4.740301856286805E-10 2.281432979402879E-11
i -5.216462986850998E-15 1.329320621248961E-14 9.287120756883211E-13 -2.296065094277492E-11 2.281432979402879E-11 1.49745987103831E-11

Ephemeris | Orbit Diagram | Orbital Elements | Mission Design | Physical Parameters | Discovery Circumstances | Close-Approach Data ]

Physical Parameter Table
Parameter Symbol Value Units Sigma Reference Notes
absolute magnitude H 15.03   n/a E2021B55  
diameter diameter 5.069 km 0.086 urn:nasa:pds:neowise_diameters_albedos::2.0[mainbelt] (http://adsabs.harvard.edu/abs/2011ApJ...741...68M)  
geometric albedo albedo 0.083   0.005 urn:nasa:pds:neowise_diameters_albedos::2.0[mainbelt] (http://adsabs.harvard.edu/abs/2011ApJ...741...68M)  

134295 (2006 DB41)          Discovered 2006-Feb-22 by CSS at Catalina
Reference: 20060711/Numbers.arcLast Updated: 2006-07-17

[ hide close-approach data ]
Close-Approach Data   ...sorted by Date/Time (TDB)
Date/Time (TDB) Time Uncertainty
(days_HH:MM)
Body Nominal Distance (au) Minimum Distance (au) Maximum Distance (au) V-relative (km/s) V-infinity (km/s) JD (TDB) Time Uncertainty (minutes) Semi-major axis (km) Semi-minor axis (km) range-LOV angle (deg) N-sigma BP Orbit Ref. Reference Modified
1917-Jul-18 09:49 00:03 Jupiter 1.85318984401119 1.85318801125642 1.85319167679093 2.41699683030194 2.21985356151213 2421427.909296389 2.73326251262981 384.393848695145 15.965806598599 -85.6037377190504 1399029.15989959 T 27 CATAB v2.0g-lin.ifort 2021-Jul-09 11:09:13 2021-Jul-09 11:09
1939-Aug-15 02:56 00:02 Jupiter 1.77275943203216 1.77275861350627 1.77276025056456 0.862430993646582 n/a 2429490.622376170 2.27419680937741 214.768331208118 24.3247315383045 81.1642332872877 10771865.4556757 F 27 CATAB v2.0g-lin.ifort 2021-Jul-09 11:09:13 2021-Jul-09 11:09
1977-Mar-26 12:16 00:01 Jupiter 1.97640441901261 1.97640344380233 1.97640539422627 2.96847892149972 2.8204134979411 2443229.010937177 1.07837868990456 157.957030777977 9.89068479462605 -77.9461446461317 1983000.61763952 T 27 CATAB v2.0g-lin.ifort 2021-Jul-09 11:09:13 2021-Jul-09 11:09
1999-May-01 15:48 < 00:01 Jupiter 1.70929028438564 1.70928987617927 1.709290692592 0.935228669910863 n/a 2451300.157986622 0.527199920676337 411.374829013571 20.3542719406901 -89.967562549263 12559252.7612244 F 27 CATAB v2.0g-lin.ifort 2021-Jul-09 11:09:13 2021-Jul-09 11:09
2059-Jan-07 10:08 00:01 Jupiter 1.68481785972151 1.68481740950672 1.6848183099406 1.35929109971493 0.917712177597732 2473100.922439549 1.1964438585204 476.529541136258 185.523499884237 -35.364230081275 1431127.72750703 T 27 CATAB v2.0g-lin.ifort 2021-Jul-09 11:09:13 2021-Jul-09 11:09
2118-Sep-10 14:31 00:03 Jupiter 1.70139526193329 1.70139472468758 1.70139579918364 1.81013100487623 1.51026301666342 2494896.104713268 2.81606906978755 242.916790472047 127.528127316599 74.7823633110552 868780.698805264 T 27 CATAB v2.0g-lin.ifort 2021-Jul-09 11:09:13 2021-Jul-09 11:09
2140-Sep-22 09:59 00:04 Jupiter 1.96246708932707 1.96246449648216 1.96246968217208 1.78573063688219 1.52499566452128 2502943.916021084 3.74470237839954 401.640381863819 25.4513434266111 49.0500956046498 1697098.21502983 T 27 CATAB v2.0g-lin.ifort 2021-Jul-09 11:09:13 2021-Jul-09 11:09
2178-May-12 16:12 00:04 Jupiter 1.7601565235281 1.76015459063959 1.76015845647865 2.24342362416563 2.01755038849152 2516690.175071741 4.48323223868583 577.564958777355 29.8541233941437 -89.5875726196757 1356610.28757015 T 27 CATAB v2.0g-lin.ifort 2021-Jul-09 11:09:13 2021-Jul-09 11:09
2200-Jun-08 21:53 00:06 Jupiter 1.84838094070854 1.84837759550585 1.84838428701549 1.14740470942226 0.632483567063618 2524752.411739657 5.66204652252234 5758.48717628896 287.075440229702 36.9118942809572 2053942.82055862 T 27 CATAB v2.0g-lin.ifort 2021-Jul-09 11:09:13 2021-Jul-09 11:09

Alternate Designations
 2006 DB41 = 2001 DU110 = 2002 LP20 
Ephemeris | Orbit Diagram | Orbital Elements | Mission Design | Physical Parameters | Discovery Circumstances | Close-Approach Data ]
ABOUT SSD CREDITS/AWARDS PRIVACY/COPYRIGHT GLOSSARY LINKS
FirstGov 2021-Jul-25 18:08 UT
(server date/time)  
NASA Home Page
Site Manager:   Ryan S. Park
Webmaster  Alan B. Chamberlin